Regional Weather Roundup
Issued by NWS

Home | Current Version | Previous Version | Graphics & Text | Print | Product List | Glossary On
Versions: 1 2 3 4 5 6 7 8 9 10 11 12 13 14 15 16 17 18 19 20 21 22 23 24 25 26 27 28 29 30 31 32 33 34 35 36 37 38 39 40 41 42 43 44 45 46 47 48 49 50
000
ASUS45 KCYS 300210
RWRWY

WYOMING REGIONAL WEATHER ROUNDUP
NATIONAL WEATHER SERVICE CHEYENNE WY
700 PM MST THU JAN 29 2015

NOTE:  "FAIR" INDICATES FEW OR NO CLOUDS BELOW 12,000 FEET
WITH NO SIGNIFICANT WEATHER AND/OR OBSTRUCTIONS TO VISIBILITY.

WYZ001-300300-
YELLOWSTONE NATIONAL PARK

CITY           SKY/WX    TMP DP  RH WIND       PRES   REMARKS
LK YELLOWSTONE   N/A     12   8  84 CALM      30.36F
W YELLOWSTONE  NOT AVBL

$$
WYZ002>013-054>058-071-098>099-300300-
NORTHERN WYOMING

CITY           SKY/WX    TMP DP  RH WIND       PRES   REMARKS
JACKSON        CLEAR     23  21  93 N12       30.34F WCI  12
CODY           FAIR      32  27  80 CALM      30.29S
GREYBULL       FAIR      28  27  96 NW7       30.30S WCI  21
WORLAND        FAIR      35  28  75 SE14      30.29S WCI  26
SHERIDAN       FAIR      35  23  61 S6        30.26F WCI  30
BUFFALO        FAIR      32  24  72 NW3       30.26F
GILLETTE       FAIR      27  22  81 S8        30.29F WCI  19
HULETT           N/A    N/A N/A N/A MISG        N/A
NEWCASTLE      FAIR      34  21  60 E6        30.35F WCI  29

$$
WYZ014>020-022>026-101>103-300300-
CENTRAL WYOMING

CITY           SKY/WX    TMP DP  RH WIND       PRES   REMARKS
BIG PINEY      FAIR      23  19  85 N9        30.35S WCI  13
PINEDALE       FAIR      19  19 100 NW6       30.34F WCI  11
DUBOIS         FAIR      28  19  69 W5        30.31R WCI  23
LANDER         FAIR      32  25  75 SW7       30.30R WCI  26
RIVERTON       FAIR      33  27  78 NE6       30.30F WCI  28
CASPER         FAIR      30  25  81 W5        30.31F WCI  25
DOUGLAS        FAIR      32  23  69 SE6       30.34S WCI  26

$$
WYZ021-027>030-104>119-300300-
SOUTHERN WYOMING

CITY           SKY/WX    TMP DP  RH WIND       PRES   REMARKS
EVANSTON       FAIR      31  27  85 NW3       30.30F
KEMMERER       FAIR      30  27  86 N12       30.31F WCI  21
FORT BRIDGER   FAIR      32  31  98 W7        30.34S WCI  26
ROCK SPRINGS   FAIR      35  27  72 E9        30.31S WCI  28
DIXON          FAIR      32  29  89 CALM      30.34R
RAWLINS        FAIR      33  26  75 NE9       30.32S WCI  25
SARATOGA       FAIR      32  28  86 CALM      30.32S
LARAMIE        FAIR      30  23  75 SE16      30.32F WCI  19
CHEYENNE       FAIR      33  19  56 S10       30.37S WCI  25
TORRINGTON     FAIR      35  20  54 SE9       30.37S WCI  28
PINE BLUFFS    FAIR      30  23  74 S7        30.39S WCI  23

$$


USA.gov is the U.S. government's official web portal to all federal, state and local government web resources and services.